Terug naar catalogus

STARLINK-35300

ActiefCommunicatieSSO
NORAD 65800·PAYLOAD·🇺🇸 United States

Gelanceerd Sep 26, 2025 vanaf Vandenberg Space Force Base

Loading…

Volgende Passages (komende 24 uur)

TLE

VersSource: CelesTrak SupGP

Epoch: Sep 14, 2026, 14:09 UTC

1 65800C 25218K   26257.59006944  .00033036  00000+0  10257-2 0  2574
2 65800  97.2844 115.0264 0001753  82.5492  28.0462 15.33415515    16

Volg STARLINK-35300 in realtime met AllMySat

Download on the App Store